SCP
0 0 0 0 0 0 0 0 0 0 0 0 0 0 0 0 0 0 0 0 0 0 0 0 0 0 0 0 0 0 0 0 0 0 0 0 0 0 0 0 0 0 0 0 0 0 0 0 0
0 0 0 0 0 0 0 0 0 0 0 0 0 0 0 0 0 0 0 0 0 0 0 0 0 0 0 0 0 0 0 0 0 0 0 0 0 0 0 0 0 0 0 0 0 0 0 0 0
0 0 0 0 0 0 0 0 0 0 0 0 0 0 0 0 0 0 0 0 0 0 0 0 0 0 0 0 0 0 0 0 0 0 0 0 0 0 0 0 0 0 0 0 0 0 0 0 0
0 0 0 0 0 0 0 0 0 0 0 0 0 0 0 0 0 0 0 0 0 0 0 0 0 0 0 0 0 0 0 0 0 0 0 0 0 0 0 0 0 0 0 0 0 0 0 0 0
0 0 0 0 0 0 0 0 0 0 0 0 0 0 0 0 0 0 0 0 0 0 0 0 0 0 0 0 0 0 0 0 0 0 0 0 0 0 0 0 0 0 0 0 0 0 0 0 0
0 0 0 0 0 0 0 0 0 0 0 0 0 0 0 0 0 0 0 0 0 0 0 0 0 0 0 0 0 0 0 0 0 0 0 0 0 0 0 0 0 0 0 0 0 0 0 0 0
0 0 0 0 0 0 0 0 0 0 0 0 0 0 0 0 0 0 0 0 0 0 0 0 0 0 0 0 0 0 0 0 0 0 0 0 0 0 0 0 0 0 0 0 0 0 0 0 0
0 0 0 0 0 0 0 0 0 0 0 0 0 0 0 0 0 0 0 0 0 0 0 0 0 0 0 0 0 0 0 0 0 0 0 0 0 0 0 0 0 0 0 0 0 0 0 0 0
0 0 0 0 0 0 0 0 0 0 0 0 0 0 0 0 0 0 0 0 0 0 0 0 0 0 0 0 0 0 0 0 0 0 0 0 0 0 0 0 0 0 0 0 0 0 0 0 0
0 0 0 0 0 0 0 0 0 0 0 0 0 0 0 0 0 0 0 0 0 0 0 0 0 0 0 0 0 0 0 0 0 0 0 0 0 0 0 0 0 0 0 0 0 0 0 0 0
0 0 0 0 0 0 0 0 0 0 0 0 0 0 0 0 0 0 0 0 0 0 0 0 0 0 0 0 0 0 0 0 0 0 0 0 0 0 0 0 0 0 0 0 0 0 0 0 0
0 0 0 0 0 0 0 0 0 0 0 0 0 0 0 0 0 0 0 0 0 0 0 0 0 0 0 0 0 0 0 0 0 0 0 0 0 0 0 0 0 0 0 0 0 0 0 0 0
0 0 0 0 0 0 0 0 0 0 0 0 0 0 0 0 0 0 0 0 0 0 0 0 0 0 0 0 0 0 0 0 0 0 0 0 0 0 0 0 0 0 0 0 0 0 0 0 0
0 0 0 0 0 0 0 0 0 0 0 0 0 0 0 0 0 0 0 0 0 0 0 0 0 0 0 0 0 0 0 0 0 0 0 0 0 0 0 0 0 0 0 0 0 0 0 0 0
0 0 0 0 0 0 0 0 0 0 0 0 0 0 0 0 0 0 0 0 0 0 0 0 0 0 0 0 0 0 0 0 0 0 0 0 0 0 0 0 0 0 0 0 0 0 0 0 0
0 0 0 0 0 0 0 0 0 0 0 0 0 0 0 0 0 0 0 0 0 0 0 0 0 0 0 0 0 0 0 0 0 0 0 0 0 0 0 0 0 0 0 0 0 0 0 0 0
0 0 0 0 0 0 0 0 0 0 0 0 0 0 0 0 0 0 0 0 0 0 0 0 0 0 0 0 0 0 0 0 0 0 0 0 0 0 0 0 0 0 0 0 0 0 0 0 0
0 0 0 0 0 0 0 0 0 0 0 0 0 0 0 0 0 0 0 0 0 0 0 0 0 0 0 0 0 0 0 0 0 0 0 0 0 0 0 0 0 0 0 0 0 0 0 0 0
0 0 0 0 0 0 0 0 0 0 0 0 0 0 0 0 0 0 0 0 0 0 0 0 0 0 0 0 0 0 0 0 0 0 0 0 0 0 0 0 0 0 0 0 0 0 0 0 0
0 0 0 0 0 0 0 0 0 0 0 0 0 0 0 0 0 0 0 0 0 0 0 0 0 0 0 0 0 0 0 0 0 0 0 0 0 0 0 0 0 0 0 0 0 0 0 0 0
0 0 0 0 0 0 0 0 0 0 0 0 0 0 0 0 0 0 0 0 0 0 0 0 0 0 0 0 0 0 0 0 0 0 0 0 0 0 0 0 0 0 0 0 0 0 0 0 0
0 0 0 0 0 0 0 0 0 0 0 0 0 0 0 0 0 0 0 0 0 0 0 0 0 0 0 0 0 0 0 0 0 0 0 0 0 0 0 0 0 0 0 0 0 0 0 0 0
0 0 0 0 0 0 0 0 0 0 0 0 0 0 0 0 0 0 0 0 0 0 0 0 0 0 0 0 0 0 0 0 0 0 0 0 0 0 0 0 0 0 0 0 0 0 0 0 0
0 0 0 0 0 0 0 0 0 0 0 0 0 0 -0 0 0 0 0 0 0 0 0 0 0 0 0 0 0 0 0 0 0 0 0 0 0 0 0 0 0 0 0 0 0 0 0 0 0
0 0 0 0 0 0 0 0 0 0 0 0 0 0 0 0 0 0 0 0 0 0 0 0 0 0 0 0 0 0 0 0 0 0 0 0 0 0 0 0 0 0 0 0 0 0 0 0 0
0 0 0 0 0 0 0 0 0 0 0 0 0 0 0 0 0 0 0 0 0 0 0 0 0 0 0 0 0 0 0 0 0 0 0 0 0 0 0 0 0 0 0 0 0 0 0 0 0
0 0 0 0 0 0 0 0 0 0 0 0 0 0 0 0 0 0 0 0 0 0 0 0 0 0 0 0 0 0 0 0 0 0 0 0 0 0 0 0 0 0 0 0 0 0 0 0 0
0 0 0 0 0 0 0 0 0 0 0 0 0 0 0 0 0 0 0 0 0 0 0 0 0 0 0 0 0 0 0 0 0 0 0 0 0 0 0 0 0 0 0 0 0 0 0 0 0
0 0 0 0 0 0 0 0 0 0 0 0 0 0 0 0 0 0 0 0 0 0 0 0 0 0 0 0 0 0 0 0 0 0 0 0 0 0 0 0 0 0 0 0 0 0 0 0 0
0 0 0 0 0 0 0 0 0 0 0 0 0 0 0 0 0 0 0 0 0 0 0 0 0 0 0 0 0 0 0 0 0 0 0 0 0 0 0 0 0 0 0 0 0 0 0 0 0
Wind_Speed
10 7 5 3 3 4 6 4 1 2 3 4 4 4 4 5 4 4 3 5 7 8 8 7 6 7 7 6 6 6 6 6 7 7 7 7 7 7 8 7 6 6 6 7 8 8 8 8 8
7 5 3 3 4 5 4 3 1 3 6 4 2 2 2 5 6 6 4 4 6 7 7 7 7 7 7 6 6 6 6 6 7 7 8 8 7 7 7 7 6 6 6 7 7 7 7 8 8
7 5 3 3 4 4 2 2 4 6 5 3 2 2 3 4 5 4 4 5 6 6 7 7 8 7 7 6 6 6 6 7 6 6 7 7 7 7 7 6 5 5 6 7 7 7 7 7 7
3 2 3 4 7 5 4 2 5 4 2 2 2 3 4 5 4 5 6 5 6 6 7 8 7 7 6 6 6 6 6 6 6 6 6 6 6 6 5 5 5 6 6 7 7 6 7 6 6
3 2 4 5 7 5 2 2 3 2 2 2 2 2 4 4 6 7 5 5 5 6 6 8 7 7 6 5 5 5 6 6 6 6 5 5 5 5 5 5 5 6 6 6 6 6 6 6 6
3 3 4 6 6 5 2 2 1 1 1 2 1 1 4 5 6 5 5 4 5 6 6 7 7 6 6 5 5 5 5 5 5 5 5 5 5 5 5 4 4 5 5 5 6 6 6 6 5
3 3 5 6 5 3 1 2 1 2 2 1 1 1 5 5 5 5 4 4 5 5 5 5 5 5 6 5 4 4 5 5 5 5 5 4 4 4 4 4 4 4 5 5 6 6 6 6 6
3 3 5 6 5 2 2 2 2 2 0 2 1 1 3 5 5 4 4 4 5 4 4 4 4 4 4 4 4 4 4 5 5 4 4 4 3 3 3 4 4 5 5 5 5 5 5 6 5
3 3 5 4 3 0 3 1 1 1 1 1 2 3 4 8 5 4 3 3 4 4 3 4 3 3 3 3 4 4 4 4 4 3 3 2 1 2 2 4 4 4 5 5 5 5 4 4 3
3 4 4 3 3 2 1 0 0 2 3 2 2 3 6 6 5 5 5 5 5 4 4 3 3 3 3 2 3 2 2 2 2 2 2 1 1 2 2 4 4 4 4 4 4 3 2 2 1
3 4 3 2 3 3 2 1 2 4 4 4 5 6 6 5 4 5 5 4 4 4 4 3 3 3 3 2 2 1 1 1 2 2 2 1 1 1 2 1 2 2 2 1 2 1 0 0 1
3 4 4 2 2 2 3 2 3 5 3 2 1 5 7 6 5 4 4 3 3 4 4 3 3 3 3 2 2 2 1 1 1 2 2 1 1 1 1 1 1 1 1 1 1 0 0 1 1
6 4 3 2 2 3 4 5 5 6 5 2 1 4 6 6 5 3 3 3 3 4 4 3 3 3 3 2 1 1 1 2 1 2 2 2 1 1 1 1 1 1 1 1 1 1 1 0 0
2 3 4 4 4 3 5 7 6 7 4 3 4 4 5 5 5 4 3 3 4 4 4 4 4 4 3 2 2 1 1 2 1 1 2 2 1 1 1 1 1 1 1 1 1 1 1 0 0
2 3 6 6 5 3 3 8 9 7 5 5 5 4 5 5 4 4 4 3 3 4 4 4 4 4 4 3 2 1 1 2 1 1 2 1 1 1 1 1 1 1 1 1 1 1 1 0 0
4 5 5 5 5 4 3 8 4 4 6 6 5 5 5 5 5 4 4 4 3 3 3 4 3 4 3 3 2 1 1 2 1 1 1 2 1 1 1 1 1 1 1 1 1 1 1 0 0
6 6 6 4 6 5 6 8 4 3 6 6 5 5 5 4 4 4 4 4 4 3 3 3 4 4 4 3 2 2 2 2 2 2 1 1 2 2 1 1 1 1 1 1 1 1 1 1 1
4 5 6 5 5 5 8 10 7 5 5 5 5 5 5 6 5 4 4 4 4 4 3 3 4 4 4 3 2 1 2 2 2 2 2 2 2 2 2 1 1 1 1 1 1 1 1 1 1
6 6 7 4 2 4 9 11 10 7 6 6 6 5 5 5 4 4 5 4 4 4 4 4 3 4 3 3 3 3 3 2 2 2 2 2 2 2 2 2 2 1 2 2 2 1 1 1 1
7 8 8 5 1 3 7 11 9 8 7 6 5 4 4 4 4 4 4 4 4 4 3 3 3 4 4 3 3 2 2 2 2 2 3 3 3 3 3 3 3 2 2 2 2 2 1 1 1
7 7 6 5 4 5 5 9 7 5 4 4 4 3 3 3 4 4 4 4 4 4 4 4 3 3 4 4 2 2 1 1 2 3 3 3 3 3 3 3 3 3 3 3 3 3 3 2 2
6 3 4 4 3 4 3 6 4 4 4 4 3 3 3 3 3 4 4 4 4 4 3 3 3 3 3 4 4 4 4 4 4 3 3 3 3 3 3 3 3 3 3 3 3 3 2 2 2
2 2 3 3 4 4 4 5 6 5 4 3 3 3 2 2 3 3 4 4 3 3 3 3 3 3 3 3 3 4 3 2 1 2 3 3 3 3 3 3 3 3 3 3 3 3 3 3 3
1 1 2 2 2 5 6 6 6 3 4 3 3 2 2 2 2 2 3 3 2 2 2 3 3 3 3 3 3 3 3 3 2 3 3 3 2 3 3 3 3 3 3 3 3 4 4 4 3
3 2 0 1 3 7 4 5 7 2 2 3 2 2 2 2 3 2 2 2 2 2 2 2 3 3 3 3 3 3 3 4 4 3 3 3 2 2 4 4 3 3 3 3 3 4 4 5 5
5 4 4 4 4 3 2 6 5 1 2 3 3 3 3 2 2 3 2 2 2 2 2 2 2 2 2 3 3 3 3 3 3 3 3 3 3 3 3 3 3 3 3 4 4 3 4 4 5
3 4 2 1 1 3 5 4 3 2 2 2 2 3 3 2 2 2 2 2 1 1 1 2 2 1 2 2 3 3 3 3 3 3 2 2 2 2 2 3 2 2 2 3 3 3 4 4 5
2 1 2 3 3 4 5 5 4 4 3 2 2 2 2 2 2 2 2 2 1 1 1 1 0 1 1 1 1 1 2 2 2 2 2 2 2 2 2 2 3 3 2 2 2 3 3 4 4
4 2 3 3 2 3 4 4 1 2 2 2 2 2 2 2 2 1 1 1 1 1 1 1 0 1 0 1 1 1 1 2 2 2 2 2 2 2 2 2 2 3 2 2 2 2 3 4 4
2 4 5 4 4 4 3 5 2 3 3 3 3 2 3 2 2 2 2 2 2 1 1 1 0 1 1 0 1 1 1 1 1 1 1 1 1 1 1 1 2 2 2 2 3 3 3 4 4
Wind_Direction
302 276 255 254 239 232 239 239 226 102 75 57 33 17 25 29 32 93 118 96 100 116 127 135 122 120 112 105 104 110 107 103 102 104 102 100 97 98 95 89 81 78 76 80 80 77 76 73 72
296 291 268 244 239 237 238 218 192 77 78 77 60 27 53 76 78 101 112 104 110 119 126 133 123 119 113 106 103 110 110 107 102 102 100 98 96 96 94 88 79 75 76 85 82 80 78 74 72
275 265 256 239 238 242 251 77 79 82 91 104 95 39 38 69 87 99 110 122 116 117 118 122 123 120 116 111 110 108 108 108 105 107 106 102 98 93 89 87 81 80 86 84 81 82 80 77 71
269 236 247 248 250 254 282 65 92 104 111 126 111 104 86 57 64 92 115 124 121 118 117 118 120 120 117 114 116 115 111 111 109 110 110 106 100 95 91 88 86 86 85 83 81 80 79 77 70
238 241 233 241 252 257 274 58 105 149 168 155 143 109 94 82 93 108 123 123 122 120 117 124 118 117 114 112 114 117 117 118 114 114 112 109 104 97 94 94 91 89 88 86 82 80 77 73 69
248 236 236 236 239 239 214 99 156 194 208 130 152 139 104 110 110 120 128 128 122 113 116 129 125 124 118 112 112 113 120 121 117 116 113 110 106 104 99 94 98 96 95 93 88 82 76 70 65
260 260 254 260 255 247 171 87 193 230 207 154 100 112 120 120 112 122 124 121 114 113 117 130 139 141 131 121 115 110 115 121 119 116 110 110 110 110 104 99 101 100 100 95 90 84 78 69 64
280 275 258 254 255 249 98 115 37 325 282 54 42 147 131 124 117 121 122 118 113 118 120 132 138 138 137 133 127 119 115 119 121 117 109 107 113 110 107 105 105 103 99 95 91 84 76 69 62
265 250 251 259 271 346 92 114 99 21 41 80 72 55 92 119 122 129 131 133 130 133 132 136 140 138 135 140 141 141 139 135 133 131 128 129 149 128 114 110 109 102 96 95 93 88 80 72 61
231 243 252 316 351 351 98 198 115 194 195 195 158 115 111 128 149 164 171 168 162 161 154 147 147 145 142 150 142 149 152 149 157 150 148 153 137 117 115 104 113 107 101 100 99 95 86 80 64
231 243 268 303 4 342 299 255 226 246 230 214 189 166 146 156 172 182 184 176 170 163 156 154 154 152 146 149 154 154 154 150 154 150 150 152 141 130 123 119 115 119 120 114 104 107 142 50 74
245 266 286 306 359 315 287 282 263 244 252 346 66 142 154 169 185 187 182 171 154 156 161 158 156 156 155 157 166 167 157 156 167 169 164 154 140 136 136 144 142 138 151 142 145 171 132 73 65
235 255 273 281 286 281 280 260 261 255 249 241 128 142 158 170 178 180 170 162 159 163 161 160 158 159 160 164 178 165 164 164 169 159 165 157 153 151 145 155 152 160 153 153 163 166 125 110 132
270 267 264 249 237 245 258 260 244 244 218 201 172 177 178 182 176 176 174 175 179 178 175 171 170 166 162 168 173 173 173 157 154 149 155 154 151 151 157 167 155 164 143 139 148 175 150 182 162
270 264 256 231 218 221 263 262 232 227 198 202 201 195 188 187 182 184 179 180 185 184 176 174 177 169 173 171 176 172 168 159 155 149 143 142 141 152 154 157 149 146 143 150 154 155 140 178 166
225 234 243 210 191 176 211 259 241 196 190 208 210 205 202 197 188 186 176 170 171 178 178 175 176 172 176 171 173 174 172 158 158 148 143 145 140 141 149 154 161 171 161 164 162 150 132 166 222
213 234 236 215 188 183 212 255 249 198 195 213 214 209 202 200 192 188 176 170 172 172 171 172 175 175 176 169 170 177 169 166 160 150 147 163 163 156 147 154 168 175 162 164 172 160 174 196 224
221 239 246 232 185 203 230 251 255 232 212 222 220 215 201 199 196 181 173 173 174 168 166 165 172 173 166 162 169 180 174 178 168 159 160 169 169 157 142 151 166 172 153 158 164 179 211 195 181
277 273 269 267 164 228 245 256 257 242 225 225 225 216 208 204 185 171 170 168 164 159 161 168 172 171 161 173 180 187 197 192 180 173 165 165 169 169 160 162 173 174 175 186 182 177 203 205 145
256 263 269 277 195 247 265 267 258 236 227 223 220 221 211 196 176 168 167 163 164 165 170 172 175 177 180 190 189 187 179 193 184 172 177 177 179 183 182 173 182 182 180 191 190 179 193 191 168
247 249 257 272 294 260 277 277 235 210 202 220 224 213 205 188 181 172 170 173 167 173 180 186 186 181 186 177 165 152 155 169 177 190 193 193 185 185 186 190 184 184 182 195 204 202 190 193 208
249 262 261 263 276 263 227 282 249 195 199 204 209 199 195 182 170 168 169 178 176 180 174 178 178 176 179 173 178 180 189 199 204 190 187 189 190 193 195 199 197 193 193 200 209 204 202 184 197
238 317 288 255 255 273 238 252 265 188 205 206 194 194 185 180 169 167 168 175 168 162 167 174 170 170 172 176 189 192 201 205 190 167 177 186 191 198 202 201 207 207 203 202 205 200 211 206 200
226 243 264 254 241 256 223 219 262 204 201 183 170 166 161 150 140 137 133 131 135 138 154 169 174 179 181 185 194 200 198 192 176 175 185 194 193 200 205 206 213 216 211 209 209 207 214 217 214
207 172 182 250 229 245 206 217 248 220 147 151 153 134 118 127 133 126 121 130 136 146 165 174 176 185 189 193 199 205 207 198 193 192 194 193 199 208 211 209 209 218 217 213 208 209 219 219 214
205 204 189 214 235 266 224 229 243 158 107 110 116 114 98 98 113 121 133 140 150 155 162 172 184 193 191 197 205 205 206 203 201 201 192 197 205 208 205 207 210 220 223 217 207 214 219 221 220
194 216 240 244 288 281 251 236 264 149 135 138 108 102 107 101 101 109 118 121 127 140 160 180 186 193 202 207 202 199 201 199 201 200 189 191 198 202 197 199 203 221 228 223 210 219 220 222 225
291 265 162 181 205 250 256 233 225 199 202 161 121 113 110 102 94 98 114 124 126 124 113 94 178 205 218 201 198 208 205 202 193 186 188 182 187 188 190 201 206 214 217 220 224 231 228 228 232
174 190 214 217 226 223 258 260 290 132 127 127 126 108 108 107 112 108 105 113 115 99 93 81 3 355 311 220 198 188 192 188 177 184 186 176 171 176 188 200 211 216 215 216 222 232 235 233 237
199 203 185 192 226 223 252 268 355 87 85 84 86 83 92 96 94 92 93 96 94 91 89 93 20 319 311 288 162 170 156 156 170 197 188 161 167 176 184 187 213 228 225 219 227 240 239 237 244